Content
SEND FEEDBACK

Daily
Averages
Monthly
Summary
United States of America

ENTERPRISE, ALABAMA


Home > North America > United States > Alabama
Elevation: 91 meters     Latitude: 31 17N     Longitude: 085 43W

WEATHER
 
SELECT A DAY
Number of Records: 63,372;   Date Range: 2/10/98 - 8/12/14
 
SHARE

PRINT THIS DATA

[ ← Previous Day ]
WEATHER ALMANAC - 14 MARCH, 2014
[ Next Day → ]
[ °F ]   °C
Weather ElementAverageHighLow
Temperature8.6 °C20.6 °C (3:53 pm)-0.6 °C (6:53 am)
Dewpoint0.4 °C6.1 °C (10:53 pm)-3.3 °C (10:53 am)
Humidity64.9 %93 % (1:17 am)22 % (2:53 pm)
Barometer1023.7 hPa1026.8 hPa (9:53 am)1020.7 hPa (4:53 pm)
Wind Speed5.5 km/h16.7 km/h (11:53 am)
Wind Gust33.3 km/h (12:53 pm)
Weather ElementAverage
Visibility9.5 km
Wind DirectionENE (78.8 °)

Weather ElementTotal
Precipitation---
Heating Degree Days8.3 (Base 18.3)
Averaged from 32 records on 14 March, 2014
WEATHER CONDITIONS BREAKOUT
WIND DIRECTION BREAKOUT
WEATHER BY HOUR - 14 MARCH, 2014
[ °F ]   °C
Local TimeTemperatureDewpointHumidityBarometerVisibilityWind DirectionWind SpeedGust SpeedPrecipitationEventsConditions
12:37 AM2.2 °C0.6 °C89 %1024.4 hPa4.8 kmCalmClear
12:53 AM1.7 °C0.6 °C92 %1024.4 hPa4.8 kmCalmClear
1:17 AM2.2 °C1.1 °C93 %1024 hPa3.2 kmCalmClear
1:31 AM2.2 °C0.6 °C89 %1024.4 hPa2.9 kmCalmClear
1:38 AM1.7 °C0 °C89 %1024.4 hPa3.2 kmCalmClear
1:53 AM1.7 °C0 °C89 %1024.4 hPa4.8 kmCalmClear
2:20 AM1.1 °C-0.6 °C89 %1024 hPa2.4 kmCalmClear
2:53 AM1.1 °C-0.6 °C89 %1024 hPa1.9 kmCalmClear
3:53 AM0.6 °C-0.6 °C92 %1024 hPa1.9 kmCalmClear
4:10 AM0.6 °C-0.6 °C92 %1024 hPa1.3 kmCalmClear
4:19 AM0.6 °C-0.6 °C92 %1024 hPa1.9 kmCalmClear
4:53 AM0.6 °C-1.1 °C89 %1024 hPa1.9 kmCalmClear
5:53 AM0 °C-1.1 °C92 %1024.4 hPa2.4 kmCalmClear
6:53 AM-0.6 °C-2.2 °C89 %1024.7 hPa1.9 kmCalmClear
7:53 AM1.7 °C0 °C89 %1025.4 hPa1.6 kmCalmClear
8:27 AM7.2 °C2.2 °C71 %1025.4 hPa4.8 kmCalmHaze
8:53 AM9.4 °C0 °C52 %1026.1 hPa14.5 kmCalmPartly Cloudy
9:53 AM12.8 °C-2.2 °C35 %1026.8 hPa16.1 kmSE (140°)13 km/hClear
10:53 AM15.6 °C-3.3 °C27 %1026.8 hPa16.1 kmSouth (180°)14.8 km/h27.8 km/hClear
11:53 AM16.7 °C-3.3 °C25 %1025.4 hPa16.1 kmSSE (160°)16.7 km/h25.9 km/hClear
12:53 PM17.8 °C-2.8 °C25 %1024.4 hPa16.1 kmSouth (180°)14.8 km/h33.3 km/hClear
1:53 PM18.9 °C-2.8 °C23 %1023.4 hPa16.1 kmSSW (200°)14.8 km/h27.8 km/hClear
2:53 PM20 °C-2.2 °C22 %1022 hPa16.1 kmSW (220°)11.1 km/hClear
3:53 PM20.6 °C-1.7 °C22 %1021.3 hPa16.1 kmSouth (170°)14.8 km/hClear
4:53 PM20.6 °C0 °C25 %1020.7 hPa16.1 kmSouth (190°)14.8 km/hClear
5:53 PM20 °C1.7 °C30 %1020.7 hPa16.1 kmSSW (210°)16.7 km/hClear
6:53 PM17.2 °C3.3 °C40 %1021.3 hPa16.1 kmSW (230°)13 km/hPartly Cloudy
7:53 PM15.6 °C4.4 °C47 %1021.3 hPa16.1 kmSW (220°)14.8 km/hClear
8:53 PM13.3 °C5.6 °C60 %1022 hPa16.1 kmSW (230°)9.3 km/hClear
9:53 PM11.7 °C5.6 °C66 %1022.4 hPa16.1 kmSouth (190°)7.4 km/hClear
10:53 PM11.1 °C6.1 °C71 %1022 hPa16.1 kmCalmClear
11:53 PM8.3 °C5.6 °C83 %1022 hPa16.1 kmCalmClear
Hourly data recorded from KLOR, located 0 kilometers away from Enterprise, Alabama







STORIES FROM OUR PARTNERS